Location: A�t Bou Chrif
(32.7193°N, 5.2385°W)
Time: 03:27:54
(UTC+00:00)

Cosmos 1980 Rocket - Pass Details

Date: 08 August 2020
Orbit: 829 x 849 km, 71.0° (Epoch: 20 September)

Event Time Altitude Azimuth Distance (km) Brightness Sun altitude
Rises 20:39:25 0° 359° (N) 3,410 5.8 -17.2°
Reaches altitude 10° 20:43:06 10° 23° (NNE) 2,467 4.7 -17.9°
Maximum altitude 20:46:09 15° 56° (NE) 2,149 4.1 -18.4°
Enters shadow 20:47:16 14° 69° (ENE) 2,190 4.0 -18.6°
